User: anonymous   Login
Location: Fort Wayne
(41.1310°N, 85.1290°W)
Time: 12:33:26
(UTC-04:00)
Language:

Cosmos 2219 Rocket - Orbit

View from above orbital plane
View from above orbital plane
View from above satellite
View from above satellite

Ground track
Ground track

The orbit data is extracted from the following two-line orbital elements,

1 22220U 92076B   15182.30136397 -.00000269  00000-0 -11124-3 0  9992
2 22220 071.0003 128.1965 0015146 283.1157 184.4858 14.16371139169265
Epoch (UTC): 01 July 2015 07:13:57
Eccentricity: 0.0015146
inclination: 71.0003°
perigee height: 827 km
apogee height: 848 km
right ascension of ascending node: 128.1965°
argument of perigee: 283.1157°
revolutions per day: 14.16371139
mean anomaly at epoch: 184.4858°
orbit number at epoch: 16926

The dashed part of the orbit path shows where the satellite is in the earth's shadow,  

DLR